When you browse on this site, cookies collect data to enhance your experience and personalize the content and advertising you see.
Visit our Privacy Policy to learn more. By continuing to use the site, you agree to this use of cookies and data.
  • In Hungary
  • List of Countries
  • For 7 days
  • Water Temperature
  • Weather Map
  • News
  • Weather Widgets
  • user-avatar
    Login

    Hourly Weather Komierowo

    Today, 31 March, Tuesday

    Time Temperature Precipitation Wind Pressure Humidity
    00:00 -3°C° 0.1 mm 4 mps 756 mmHg 82%
    01:00 -4°C° 0.1 mm 4 mps 757 mmHg 77%
    02:00 -4°C° 0 mm 4 mps 757 mmHg 76%
    03:00 -5°C° 0 mm 3 mps 757 mmHg 75%
    04:00 -6°C° 0 mm 3 mps 757 mmHg 73%
    05:00 -5°C° 0 mm 4 mps 757 mmHg 71%
    06:00 -4°C° 0 mm 4 mps 757 mmHg 68%
    07:00 -3°C° 0 mm 4 mps 758 mmHg 66%
    08:00 -2°C° 0 mm 4 mps 758 mmHg 62%
    09:00 -1°C° 0 mm 4 mps 758 mmHg 59%
    10:00 0°C° 0 mm 4 mps 758 mmHg 55%
    11:00 +1°C° 0 mm 4 mps 758 mmHg 53%
    12:00 +1°C° 0 mm 4 mps 758 mmHg 51%
    13:00 +2°C° 0 mm 5 mps 758 mmHg 49%
    14:00 +3°C° 0 mm 4 mps 758 mmHg 50%
    15:00 +3°C° 0 mm 4 mps 757 mmHg 51%
    16:00 +1°C° 0 mm 4 mps 757 mmHg 52%
    17:00 0°C° 0 mm 4 mps 757 mmHg 56%
    18:00 -1°C° 0 mm 3 mps 757 mmHg 60%
    19:00 -2°C° 0 mm 3 mps 757 mmHg 64%
    20:00 -4°C° 0 mm 3 mps 756 mmHg 65%
    21:00 -3°C° 0 mm 2 mps 756 mmHg 65%
    22:00 -4°C° 0 mm 2 mps 756 mmHg 65%
    23:00 -4°C° 0 mm 3 mps 755 mmHg 65%

    Tomorrow, 1 April, Wednesday

    Time Temperature Precipitation Wind Pressure Humidity
    00:00 -4°C° 0 mm 3 mps 755 mmHg 65%
    01:00 -4°C° 0 mm 4 mps 755 mmHg 64%
    02:00 -4°C° 0 mm 4 mps 754 mmHg 66%
    03:00 -4°C° 0 mm 4 mps 753 mmHg 67%
    04:00 -5°C° 0 mm 5 mps 752 mmHg 68%
    05:00 -4°C° 0 mm 5 mps 752 mmHg 68%
    06:00 -3°C° 0 mm 6 mps 752 mmHg 68%
    07:00 -2°C° 0 mm 6 mps 751 mmHg 68%
    08:00 -1°C° 0 mm 7 mps 751 mmHg 67%
    09:00 0°C° 0 mm 7 mps 751 mmHg 65%
    10:00 +3°C° 0 mm 7 mps 750 mmHg 64%
    11:00 +3°C° 0 mm 7 mps 750 mmHg 63%
    12:00 +4°C° 0 mm 7 mps 750 mmHg 63%
    13:00 +4°C° 0 mm 7 mps 749 mmHg 62%
    14:00 +4°C° 0 mm 7 mps 749 mmHg 64%
    15:00 +4°C° 0 mm 7 mps 749 mmHg 65%
    16:00 +4°C° 0 mm 6 mps 748 mmHg 66%
    17:00 +3°C° 0 mm 6 mps 748 mmHg 72%
    18:00 +2°C° 0 mm 5 mps 747 mmHg 79%
    19:00 +1°C° 0 mm 4 mps 747 mmHg 85%
    20:00 +1°C° 0.1 mm 5 mps 747 mmHg 87%
    21:00 +1°C° 0.1 mm 5 mps 747 mmHg 89%
    22:00 +1°C° 0.1 mm 6 mps 746 mmHg 91%
    23:00 +1°C° 0 mm 5 mps 746 mmHg 91%

    Day after tomorrow, 2 April, Thursday

    Time Temperature Precipitation Wind Pressure Humidity
    00:00 0°C° 0 mm 5 mps 746 mmHg 91%
    01:00 0°C° 0 mm 5 mps 746 mmHg 90%
    02:00 0°C° 0 mm 5 mps 746 mmHg 91%
    03:00 -1°C° 0 mm 5 mps 745 mmHg 92%
    04:00 -1°C° 0 mm 5 mps 745 mmHg 93%
    05:00 -1°C° 0 mm 5 mps 745 mmHg 89%
    06:00 -1°C° 0 mm 6 mps 745 mmHg 86%
    07:00 -1°C° 0 mm 6 mps 745 mmHg 83%
    08:00 +1°C° 0 mm 6 mps 745 mmHg 77%
    09:00 +3°C° 0 mm 7 mps 745 mmHg 71%
    10:00 +4°C° 0 mm 7 mps 745 mmHg 65%
    11:00 +4°C° 0 mm 7 mps 745 mmHg 63%
    12:00 +5°C° 0 mm 7 mps 744 mmHg 62%
    13:00 +5°C° 0 mm 7 mps 744 mmHg 61%
    14:00 +5°C° 0 mm 7 mps 744 mmHg 62%
    15:00 +5°C° 0 mm 7 mps 743 mmHg 63%
    16:00 +5°C° 0 mm 7 mps 742 mmHg 63%
    17:00 +5°C° 0 mm 7 mps 742 mmHg 64%
    18:00 +4°C° 0 mm 6 mps 742 mmHg 65%
    19:00 +4°C° 0 mm 6 mps 741 mmHg 66%
    20:00 +4°C° 0 mm 6 mps 741 mmHg 67%
    21:00 +4°C° 0 mm 6 mps 740 mmHg 67%
    22:00 +4°C° 0 mm 7 mps 740 mmHg 67%
    23:00 +3°C° 0 mm 7 mps 740 mmHg 71%

    3 April, Friday

    Time Temperature Precipitation Wind Pressure Humidity
    00:00 +3°C° 0 mm 7 mps 740 mmHg 74%
    01:00 +2°C° 0 mm 8 mps 740 mmHg 77%
    02:00 +2°C° 0.4 mm 7 mps 740 mmHg 78%
    03:00 +2°C° 0.4 mm 7 mps 740 mmHg 80%
    04:00 0°C° 0.4 mm 7 mps 740 mmHg 81%
    05:00 0°C° 0 mm 7 mps 740 mmHg 77%
    06:00 0°C° 0 mm 7 mps 741 mmHg 74%
    07:00 -1°C° 0 mm 8 mps 741 mmHg 71%
    08:00 0°C° 0 mm 8 mps 742 mmHg 67%
    09:00 +1°C° 0 mm 8 mps 742 mmHg 64%
    10:00 +2°C° 0 mm 9 mps 743 mmHg 60%
    11:00 +3°C° 0.1 mm 9 mps 744 mmHg 55%
    12:00 +5°C° 0.1 mm 9 mps 744 mmHg 49%
    13:00 +6°C° 0.1 mm 9 mps 745 mmHg 43%
    14:00 +5°C° 0 mm 9 mps 745 mmHg 43%
    15:00 +5°C° 0 mm 9 mps 745 mmHg 42%
    16:00 +5°C° 0 mm 9 mps 746 mmHg 42%
    17:00 +4°C° 0 mm 7 mps 746 mmHg 46%
    18:00 +2°C° 0 mm 6 mps 747 mmHg 51%
    19:00 +1°C° 0 mm 4 mps 748 mmHg 56%
    20:00 +1°C° 0 mm 4 mps 748 mmHg 58%
    21:00 0°C° 0 mm 4 mps 749 mmHg 61%
    22:00 0°C° 0 mm 4 mps 749 mmHg 64%
    23:00 -1°C° 0 mm 4 mps 750 mmHg 67%

    4 April, Saturday

    Time Temperature Precipitation Wind Pressure Humidity
    00:00 -1°C° 0 mm 4 mps 750 mmHg 70%
    01:00 -1°C° 0 mm 4 mps 751 mmHg 74%
    02:00 -2°C° 0 mm 4 mps 751 mmHg 76%
    03:00 -2°C° 0 mm 4 mps 751 mmHg 78%
    04:00 -2°C° 0 mm 4 mps 752 mmHg 81%
    05:00 -2°C° 0 mm 4 mps 753 mmHg 77%
    06:00 -1°C° 0 mm 5 mps 753 mmHg 72%
    07:00 0°C° 0 mm 5 mps 754 mmHg 68%
    08:00 +1°C° 0 mm 5 mps 755 mmHg 63%
    09:00 +2°C° 0 mm 6 mps 755 mmHg 57%
    10:00 +4°C° 0 mm 6 mps 756 mmHg 51%
    11:00 +4°C° 0 mm 6 mps 756 mmHg 50%
    12:00 +6°C° 0 mm 5 mps 756 mmHg 49%
    13:00 +6°C° 0 mm 5 mps 757 mmHg 48%
    14:00 +6°C° 0 mm 5 mps 757 mmHg 47%
    15:00 +6°C° 0 mm 4 mps 757 mmHg 46%
    16:00 +6°C° 0 mm 4 mps 757 mmHg 45%
    17:00 +5°C° 0 mm 3 mps 758 mmHg 50%
    18:00 +4°C° 0 mm 2 mps 758 mmHg 55%
    19:00 +3°C° 0 mm 2 mps 758 mmHg 60%
    20:00 +3°C° 0 mm 1 mps 759 mmHg 62%
    21:00 +3°C° 0 mm 1 mps 759 mmHg 64%
    22:00 +2°C° 0 mm 1 mps 760 mmHg 66%
    23:00 +2°C° 0 mm 1 mps 760 mmHg 67%

    5 April, Sunday

    Time Temperature Precipitation Wind Pressure Humidity
    00:00 +2°C° 0 mm 1 mps 760 mmHg 67%
    01:00 -1°C° 0 mm 2 mps 760 mmHg 68%
    02:00 -1°C° 0 mm 2 mps 760 mmHg 70%
    03:00 -1°C° 0 mm 2 mps 760 mmHg 72%
    04:00 -1°C° 0 mm 2 mps 760 mmHg 74%
    05:00 0°C° 0 mm 3 mps 760 mmHg 72%
    06:00 0°C° 0 mm 3 mps 760 mmHg 69%
    07:00 +1°C° 0 mm 3 mps 760 mmHg 67%
    08:00 +3°C° 0 mm 4 mps 760 mmHg 61%
    09:00 +5°C° 0 mm 4 mps 760 mmHg 56%
    10:00 +6°C° 0 mm 5 mps 759 mmHg 51%
    11:00 +7°C° 0 mm 5 mps 759 mmHg 49%
    12:00 +8°C° 0 mm 5 mps 759 mmHg 46%
    13:00 +9°C° 0 mm 5 mps 758 mmHg 44%
    14:00 +10°C° 0 mm 5 mps 757 mmHg 45%
    15:00 +10°C° 0 mm 5 mps 757 mmHg 46%
    16:00 +10°C° 0 mm 5 mps 756 mmHg 47%
    17:00 +10°C° 0 mm 4 mps 756 mmHg 55%
    18:00 +9°C° 0 mm 3 mps 755 mmHg 62%
    19:00 +7°C° 0 mm 3 mps 755 mmHg 70%
    20:00 +7°C° 0 mm 3 mps 755 mmHg 73%
    21:00 +5°C° 0 mm 3 mps 755 mmHg 76%
    22:00 +5°C° 0 mm 3 mps 754 mmHg 79%
    23:00 +4°C° 0 mm 3 mps 754 mmHg 81%
    Show more